Weather in Konevo

Russia / Kostroma Oblast     58°05′00″N   45°55′24″E
temp.,
°C
wind,
m/s
gust,
m/s
humid.,
%
clouds,
%
prec.,
mm/h
press.,
hPa
HPBL,
m
11 may, tue
tue1100:00+5nne39978 0.0 1028241
03:00+4nne29978 0.0 1029213
06:00+6nne38915 0.0 1029270
09:00+12ne35665 0.0 1030595
12:00+17ne34495 0.0 1029917
15:00+19ne33450 0.0 10291069
18:00+17ne23624 0.0 1029110
21:00+11ene22835 0.0 103023
12 may, wed
wed1200:00+10ene22885 0.0 103027
03:00+9ne22925 0.0 103041
06:00+12ene23785 0.0 1030121
09:00+18ene23603 0.0 1030507
12:00+23e23480 0.0 10281070
15:00+24ese344537 0.0 10272095
18:00+19e2369100 0.0 102647
21:00+15se237558 0.0 102755
13 may, thu
thu1300:00+14ssw118170 0.0 102711
03:00+14sse1178100 0.0 102711
06:00+16e237734 0.0 1027109
09:00+22se365266 0.0 1026674
12:00+24se57415 0.0 10251916
15:00+24sse574593 0.0 10231521
18:00+21sse5105692 0.0 1022895
21:00+17se2117191 0.0 1022350
14 may, fri
fri1400:00+15se31279100 0.0 1021326
03:00+15sse31177100 0.1 1021312
06:00+15sse2880100 0.0 1021260
09:00+19s35622 0.0 1020585
12:00+24ssw3550100 0.0 10201526
15:00+24ssw3447100 0.0 10191897
18:00+22sw116592 0.0 101924
21:00+17s11831 0.0 101911
15 may, sat
sat1500:00+15s119140 0.0 101810
03:00+14se129480 0.0 101812
06:00+17se25827 0.0 1017192
09:00+23sse4659100 0.0 1016599
12:00+27s5841100 0.0 10151273
15:00+28s5133369 0.0 10131706
18:00+24s6134353 0.0 10121249
21:00+20s414565 0.0 1013690